Weather History for Austin Bergstrom, TX

Change the Weather History Date:

Tuesday, February 5, 2013

  Actual Average Record
Temperature  
Mean Temperature 61 °F 50 °F  
Max Temperature 79 °F 63 °F 83 °F (1943)
Min Temperature 43 °F 38 °F 17 °F (2011)
Degree Days  
Heating Degree Days 4 15  
Month to date heating degree days 38 75  
Since 1 July heating degree days 1096 1317  
Cooling Degree Days 0 0  
Month to date cooling degree days 0 0  
Year to date cooling degree days 18 5  
Growing Degree Days 16 (Base 50)    
Moisture  
Dew Point 47 °F    
Average Humidity 64    
Maximum Humidity 100    
Minimum Humidity 28    
Precipitation  
Precipitation 0.00 in 0.08 in 2.21 in (1961)
Month to date precipitation T 0.37  
Year to date precipitation 2.71 2.60  
Snow  
Snow 0.00 in - - ()
Month to date snowfall 0.0  
Since 1 July snowfall T  
Snow Depth 0.00 in    
Sea Level Pressure  
Sea Level Pressure 29.92 in    
Wind  
Wind Speed 3 mph (ENE)    
Max Wind Speed 9 mph    
Max Gust Speed 13 mph    
Visibility 10 miles    
Events Fog , Rain    
T = Trace of Precipitation, MM = Missing Value Source: NWS Daily Summary

Daily Weather History Graph

Daily Weather History Graph

Search for Another Location

Airport:

Trip Planner

Search our weather history database for the weather conditions in past years. The results will help you decide how hot, cold, wet, or windy it might be!

Date:

Astronomy

Feb. 05, 2013 Rise Set
Actual Time 7:18 AM CST 6:11 PM CST
Civil Twilight 6:53 AM CST 6:36 PM CST
Nautical Twilight 6:25 AM CST 7:04 PM CST
Astronomical Twilight 5:56 AM CST 7:32 PM CST
Moon 2:54 AM CST (2/5) 1:38 PM CST (2/5)
Length of Visible Light 11h 42m
Length of Day
10h 52m
Waning Crescent, 26% of the Moon is Illuminated
Feb 5
Waning Crescent
Feb 10
New
Feb 17
First Quarter
Feb 25
Full
Mar 4
Last Quarter

Hourly Weather History & Observations

Time (CST) Temp. Windchill Dew Point Humidity Pressure Visibility Wind Dir Wind Speed Gust Speed Precip Events Conditions
12:53 AM 50.0 °F - 48.9 °F 96% 29.87 in 10.0 mi WSW 4.6 mph - N/A   Clear
1:53 AM 51.1 °F - 50.0 °F 96% 29.87 in 9.0 mi Calm Calm - N/A   Clear
2:53 AM 54.0 °F - 52.0 °F 93% 29.86 in 10.0 mi WSW 4.6 mph - N/A   Clear
3:53 AM 52.0 °F - 51.1 °F 97% 29.86 in 10.0 mi Calm Calm - N/A   Clear
4:53 AM 50.0 °F - 50.0 °F 100% 29.87 in 9.0 mi SSW 4.6 mph - N/A   Scattered Clouds
5:53 AM 48.9 °F - 48.9 °F 100% 29.89 in 9.0 mi Calm Calm - N/A Fog Patches of Fog
6:53 AM 45.0 °F 43.5 °F 45.0 °F 100% 29.92 in 8.0 mi WNW 3.5 mph - N/A Fog Patches of Fog
7:53 AM 46.9 °F - 46.9 °F 100% 29.95 in 7.0 mi SW 3.5 mph - N/A Fog Patches of Fog
8:53 AM 59.0 °F - 48.9 °F 69% 29.96 in 10.0 mi North 3.5 mph - N/A   Partly Cloudy
9:53 AM 64.0 °F - 45.0 °F 50% 29.97 in 10.0 mi North 6.9 mph - N/A   Partly Cloudy
10:53 AM 66.0 °F - 46.0 °F 48% 29.98 in 10.0 mi Calm Calm - N/A   Partly Cloudy
11:53 AM 71.1 °F - 46.9 °F 42% 29.97 in 10.0 mi East 4.6 mph - N/A   Scattered Clouds
12:53 PM 73.0 °F - 45.0 °F 37% 29.94 in 10.0 mi ENE 3.5 mph - N/A   Mostly Cloudy
1:53 PM 75.9 °F - 46.0 °F 35% 29.91 in 10.0 mi East 4.6 mph - N/A   Mostly Cloudy
2:53 PM 77.0 °F - 45.0 °F 32% 29.89 in 10.0 mi Calm Calm - N/A   Scattered Clouds
3:53 PM 78.1 °F - 43.0 °F 29% 29.87 in 10.0 mi SE 4.6 mph - N/A   Mostly Cloudy
4:53 PM 77.0 °F - 41.0 °F 28% 29.88 in 10.0 mi ENE 4.6 mph - N/A   Mostly Cloudy
5:53 PM 73.0 °F - 44.1 °F 35% 29.88 in 10.0 mi East 5.8 mph - N/A   Mostly Cloudy
6:53 PM 69.1 °F - 44.1 °F 40% 29.91 in 10.0 mi ENE 5.8 mph - N/A   Scattered Clouds
7:53 PM 55.9 °F - 44.1 °F 64% 29.94 in 10.0 mi NE 3.5 mph - N/A   Partly Cloudy
8:53 PM 55.9 °F - 45.0 °F 67% 29.95 in 10.0 mi Calm Calm - N/A   Mostly Cloudy
9:53 PM 53.1 °F - 45.0 °F 74% 29.96 in 10.0 mi Calm Calm - N/A   Mostly Cloudy
10:53 PM 55.9 °F - 46.9 °F 72% 29.96 in 10.0 mi Calm Calm - N/A   Mostly Cloudy
11:53 PM 57.9 °F - 48.9 °F 72% 29.97 in 10.0 mi Calm Calm - N/A   Mostly Cloudy